STARLINK-36366, 68122

Orbit data source: Space-Track

STARLINK-36366, 68122 is a payload satellite owned by SpaceX/Seattle (US) in SSO that was launched on Sun, 08 Mar 2026 UTC via an FALCON 9 launch vehicle from the Air Force Western Test Range (AFWTR). Payload-class satellites include a variety of spacecraft equipped with specific instruments for various scientific and technological missions. These include communications satellites like Starlink; space stations such as the ISS; scientific satellites like the Hubble; Earth observation satellites from companies like Planet Labs, Umbra, and HawkEye 360; GPS; miniature CubeSats for education and research; and military/defense satellites.

Loading next visibility...
Identifier
68122, 2026-044X
Orbit
SSO
Country
Flag of USUS
Related business
Manufacturer
SpaceX/Seattle
Mission
Operational Commercial Communications
Bus & Motor
STARLINK V2MO, Unknown motor
Mass
575 kg wet, ~530 kg dry
Launch date (UTC)
2026-03-08 (6 months ago)
Launch vehicle
FALCON 9
Launch site
Air Force Western Test Range (AFWTR)
Object type
Payload
Rocket body
Debris
Shape & HBR
Box + 1 Pan, 17.7 m
Radar Cross Section
41.120 m², Large (>1 m²)

Expand to show TLE details & history
Last TLE update: 16 hours ago

TLE from 16 hours ago
0 STARLINK-36366
1 68122U 26044X   26246.74475912  .00011432  00000-0  35601-3 0  9993
2 68122  97.2857 205.9850 0002529  88.0816 272.0716 15.33432327 28870
Epoch: 2026-09-03T17:52Z
TLE epoch observation values (Epoch: 2026-09-03T17:52:27.187Z)
Latitude
-0.00009°
Longitude
-45.0068°
Altitude
468.631 km
Speed
7.632 km/s
True Right ascension
13h 43m 56s
True Declination
0° 00' 00"
Sunlit
Object was in daylight at epoch
Visualization orbit readout
Latitude
Unknown
Longitude
Unknown
Altitude
Unknown
Speed
Unknown
Apparent Right ascension
Unknown
Apparent Declination
Unknown
Sunlit
N/A
Visualization observer readout
Local Sidereal Time
01:56:48
Azimuth
Unknown
Elevation
Unknown
Doppler factor
Unknown
Orbital elements
Apogee altitude
464.254 km
Perigee altitude
460.794 km
Semi-major axis
6,840.661 km
Eccentricity
0.00025
Inclination
97.2857°
RAAN
205.985°
Arg. of periapsis
88.0816°
True anomaly
272.04264°
Mean anomaly
272.0716°
Eccentric anomaly
272.05712°
Mean motion
3.83615 °/min
Orbital period
93.84 mins
BSTAR
0.00035601
Loading maneuver chart data...
Computing Atmospheric mass density...
Loading historical data...
Loading historical data...
Loading historical data...
Loading historical data...
Loading historical data...
Loading historical data...
Loading historical data...

Documentation

Showing up to 5 results
|